Theta_e
317 320 324 326 325 324 324 324 325 331 332 334 335 334 332 329 327 325 322 321 322 327 326 330 330 330 332 328 329 328 327 326 324 322 321 320 319 319 318 320 321 321 318
311 311 317 322 322 325 324 323 322 323 327 331 331 331 332 331 330 326 323 319 317 323 326 326 330 330 332 331 330 329 326 325 323 322 320 319 318 317 317 319 318 317 316
312 314 315 318 319 324 319 324 323 322 323 325 326 329 329 331 331 328 323 316 314 316 325 326 325 326 331 331 330 327 325 323 321 320 319 318 317 317 318 316 315 314 313
309 311 313 315 318 320 323 324 323 323 322 322 322 324 326 327 326 326 324 324 314 321 323 326 326 328 331 330 329 326 324 322 321 320 318 317 317 317 316 316 314 313 313
311 312 312 312 314 318 318 319 320 321 321 321 321 321 322 324 325 325 324 322 319 320 326 329 326 326 326 329 329 328 325 322 320 319 318 317 317 316 315 315 313 313 312
311 312 312 313 313 314 318 321 321 321 321 320 319 319 320 320 321 322 324 323 321 320 321 327 329 324 325 327 327 328 326 323 320 319 318 318 317 316 315 314 313 312 312
311 312 312 312 312 313 314 316 317 317 318 319 318 318 318 318 318 319 322 322 321 321 321 323 327 327 325 325 326 326 327 324 321 320 319 318 317 315 315 314 313 312 311
311 311 311 312 312 312 313 315 315 317 318 318 319 318 318 318 319 319 321 321 320 321 322 323 323 326 325 324 325 325 326 324 322 320 318 318 317 316 314 314 313 311 310
309 311 311 311 311 311 312 313 314 315 316 317 316 318 318 318 318 320 319 319 319 320 321 323 323 322 325 325 325 325 325 324 323 320 320 318 317 315 314 314 313 311 309
307 308 309 310 311 311 312 312 312 313 314 315 317 317 317 317 318 319 317 316 316 318 319 320 320 321 322 323 323 324 324 323 321 320 320 318 316 313 314 315 313 312 309
306 306 306 306 307 308 310 311 312 312 313 315 315 316 316 317 316 317 318 318 316 316 316 317 318 320 319 320 321 322 322 323 320 321 321 318 315 313 315 315 313 311 310
305 306 306 306 306 307 307 309 312 312 312 313 314 314 315 315 315 316 317 317 317 317 315 315 314 318 317 318 320 320 321 321 320 320 320 318 316 315 315 315 313 311 310
305 306 305 306 306 306 307 307 308 311 312 312 312 313 314 314 314 315 316 317 317 316 313 311 313 313 316 318 318 316 316 316 319 320 318 316 316 316 315 315 313 312 310
305 305 305 305 304 304 304 306 308 309 310 311 310 311 311 313 313 315 315 316 317 315 314 315 311 313 315 316 316 316 316 317 318 317 316 316 317 315 313 312 312 312 308
304 303 304 304 304 304 303 305 306 307 310 310 311 310 311 311 312 312 314 314 315 316 315 314 313 309 310 311 314 315 316 316 316 315 316 316 314 311 310 309 308 307 305
302 302 302 303 303 303 303 303 302 306 308 309 310 310 311 311 311 310 311 313 313 314 317 314 312 307 306 308 309 310 312 312 313 313 313 312 308 308 307 306 306 304 302
301 301 301 301 302 302 302 302 304 304 305 307 308 308 309 311 311 311 311 311 312 313 314 307 306 303 304 306 307 307 307 308 309 309 308 308 306 305 304 304 303 300 294
300 300 300 300 301 301 303 303 304 304 305 307 307 308 308 309 310 310 311 311 311 311 312 306 301 299 300 302 304 304 304 304 304 304 304 303 302 301 301 299 295 292 292
299 299 299 299 300 300 302 303 304 305 306 307 307 308 308 309 309 310 311 311 310 310 310 307 299 298 298 299 300 300 300 301 300 299 298 298 298 297 294 293 293 293 293
297 297 297 298 299 300 301 301 303 305 306 307 308 308 308 308 308 309 310 310 310 310 308 304 299 295 296 296 297 296 295 296 296 296 295 294 293 293 294 293 292 292 293
296 296 296 297 297 298 299 300 304 307 307 307 307 307 308 308 309 309 309 310 310 307 305 303 297 293 292 291 293 293 292 291 291 291 290 290 290 291 291 291 290 289 290
295 295 295 295 297 297 297 300 304 304 304 304 303 303 305 307 308 308 308 308 307 305 303 300 297 296 294 293 292 291 289 289 290 290 291 289 289 288 288 287 287 286 286
294 294 295 295 295 295 296 301 302 302 302 302 302 301 303 303 304 303 302 302 300 301 303 302 299 296 294 293 292 290 290 291 290 290 290 289 289 287 286 286 285 285 285
294 294 294 295 294 295 295 299 301 300 299 299 299 297 298 298 299 299 299 298 297 298 298 299 298 297 298 295 294 293 293 291 289 286 286 288 285 286 285 284 285 284 284
293 293 293 294 294 294 295 297 298 296 295 295 295 295 296 295 296 296 296 295 294 293 297 298 298 299 298 296 295 295 291 288 286 285 284 286 285 286 286 286 284 284 284
293 292 292 293 293 294 295 297 296 294 293 292 292 292 294 294 296 294 295 292 290 290 289 291 291 291 290 290 290 290 289 289 287 287 285 286 285 285 289 285 284 284 284
Wind_Speed
3 3 3 3 3 4 4 4 4 5 8 10 11 13 14 13 12 11 11 15 18 18 15 14 13 18 17 16 15 15 14 12 10 10 11 11 11 11 10 10 11 10 8
4 5 6 6 6 5 4 5 4 5 6 9 11 13 14 17 18 14 14 16 18 20 18 18 15 18 19 18 18 16 14 14 12 12 10 12 12 12 11 11 9 8 6
5 6 6 6 7 6 8 6 5 4 5 6 12 13 14 17 21 22 22 22 20 21 23 21 21 18 23 21 20 18 17 16 15 15 14 13 12 13 13 12 11 9 6
7 7 7 7 7 7 7 7 7 7 6 7 7 9 11 11 13 15 16 17 20 16 20 23 23 20 24 24 21 19 19 19 17 16 16 14 14 13 13 12 10 9 9
7 7 7 8 8 9 10 10 9 8 8 8 8 9 10 11 13 13 15 15 16 16 15 16 23 22 23 26 24 23 23 20 20 19 17 15 14 13 13 12 11 11 10
7 7 7 7 7 8 9 10 10 10 10 9 8 10 10 12 13 14 15 15 16 17 16 16 16 24 23 27 27 25 24 23 23 20 19 17 17 15 13 12 12 11 11
6 7 7 7 7 8 9 9 8 10 10 8 6 11 13 14 15 18 16 16 16 15 15 16 17 18 24 28 31 27 27 27 25 24 21 19 18 16 15 14 13 11 10
8 7 8 8 7 8 9 10 11 11 10 12 7 9 5 7 12 16 12 13 14 13 14 15 17 15 22 28 32 31 31 30 28 26 25 23 21 20 18 16 14 12 10
9 9 8 8 9 9 10 11 12 14 16 14 18 12 5 5 5 7 15 14 14 13 14 15 17 21 17 20 27 33 33 32 29 27 26 26 22 20 20 19 17 15 12
10 9 9 9 9 10 11 13 14 15 16 19 14 22 21 13 4 4 6 10 11 12 13 15 18 24 22 22 24 33 36 32 33 30 29 25 24 24 23 22 20 17 14
12 11 10 10 11 11 12 14 16 16 17 19 20 18 18 22 19 12 10 5 7 10 11 15 17 20 22 22 22 28 22 37 33 31 29 26 23 23 24 22 20 17 16
11 10 10 11 12 12 14 15 16 17 18 18 19 21 20 7 10 13 9 15 15 11 7 10 14 20 19 17 22 23 24 29 29 29 30 26 23 24 24 23 20 18 17
11 11 12 11 12 12 14 15 16 16 18 19 19 19 19 20 20 20 19 16 12 15 7 11 13 12 15 17 19 20 23 26 36 35 25 21 29 27 25 23 20 20 18
13 14 14 13 13 14 14 14 15 16 17 18 19 19 20 19 21 23 18 15 8 11 10 7 10 16 17 19 19 20 16 20 28 25 21 24 29 24 20 19 16 17 15
15 16 16 16 15 14 14 14 16 16 16 19 19 19 20 19 19 22 20 23 15 8 6 10 10 10 15 15 17 19 19 24 31 29 20 17 20 19 18 17 20 18 16
15 17 17 16 16 15 15 16 16 16 19 20 19 19 20 20 19 20 23 21 23 18 9 7 9 9 11 13 16 16 16 21 24 25 24 21 17 20 20 17 16 15 15
15 16 16 17 16 17 16 14 15 16 17 19 22 22 23 23 21 20 21 21 20 19 5 4 6 9 10 12 14 14 16 18 21 20 20 19 17 16 16 15 14 15 15
15 15 16 16 16 17 18 17 18 17 18 19 19 20 22 23 24 23 21 22 21 20 18 6 10 9 10 13 15 16 17 17 19 20 20 18 16 15 14 14 13 15 15
14 14 14 15 16 16 17 18 19 22 23 24 24 22 21 21 23 23 21 21 22 22 19 15 12 15 9 15 16 16 17 18 18 16 13 13 13 12 9 9 13 15 14
13 13 13 13 14 14 14 16 18 19 20 22 22 21 20 21 21 20 21 23 23 20 18 15 10 9 11 14 20 20 15 16 16 15 14 12 10 12 11 10 11 10 12
12 12 12 12 12 12 15 17 13 9 9 12 15 17 17 19 20 23 23 22 23 20 17 17 9 5 8 10 18 19 13 15 12 12 10 10 11 10 12 16 13 13 15
11 11 11 12 12 13 16 12 7 6 4 4 5 4 3 7 7 6 12 12 18 20 20 15 11 6 11 12 16 19 18 9 4 10 11 6 6 9 9 12 14 13 13
10 10 12 13 12 13 12 9 6 8 11 11 9 8 10 9 6 4 4 6 7 4 7 13 12 8 12 17 19 16 16 11 5 7 9 4 8 10 10 11 11 10 10
10 11 12 13 13 12 10 6 7 11 13 14 13 12 13 13 11 8 10 13 14 14 9 4 5 9 4 11 14 16 16 11 8 6 7 4 4 4 5 5 6 8 10
10 11 11 12 13 12 10 6 10 14 14 15 15 15 15 15 12 12 18 22 22 21 16 16 13 11 10 10 12 15 15 12 4 4 8 2 2 1 3 3 4 3 4
8 9 10 12 13 13 11 7 10 13 14 11 13 15 15 12 10 12 14 17 20 13 13 14 16 17 15 13 11 7 13 7 5 3 5 4 3 1 2 2 2 4 6
Wind_Direction
330 323 307 295 295 308 308 303 297 278 256 243 236 232 236 236 237 236 241 250 240 239 240 232 239 225 205 205 193 195 193 193 209 199 174 171 168 164 163 173 146 144 136
317 300 292 287 277 281 286 289 293 288 266 256 250 241 240 242 241 235 237 240 238 240 243 232 228 231 210 205 197 197 199 202 204 206 202 181 178 177 178 175 175 177 164
321 299 289 288 281 271 269 274 277 280 266 257 251 257 249 246 248 244 243 237 235 244 239 237 234 226 210 211 212 207 201 200 199 206 194 194 188 187 182 192 204 202 192
311 307 300 290 284 275 263 260 259 261 260 258 257 252 253 252 249 245 248 248 241 246 241 239 230 229 214 215 211 209 204 194 191 198 192 198 196 194 194 186 190 188 180
316 309 300 292 290 279 271 264 263 257 263 259 259 254 253 249 253 246 242 239 241 240 240 245 230 231 232 219 209 203 202 203 186 194 192 195 201 200 198 196 192 187 188
314 311 299 296 292 277 274 272 255 252 253 257 264 265 260 266 251 250 247 243 242 243 243 243 242 239 234 230 215 211 206 196 190 195 195 190 197 201 199 200 196 190 189
321 314 306 305 299 287 278 266 265 257 255 242 255 265 262 257 255 248 245 246 244 246 247 247 248 247 236 231 229 225 209 193 193 189 194 190 195 201 201 200 198 200 196
319 309 298 294 297 295 285 270 259 257 254 249 246 267 278 242 243 239 235 235 240 249 251 252 253 256 242 237 237 227 216 195 196 193 194 190 191 197 204 202 197 202 200
323 318 306 287 285 285 283 279 269 257 255 249 242 243 255 249 289 221 237 242 247 251 248 250 251 251 246 243 240 235 224 197 196 196 193 192 193 199 202 203 203 199 205
311 308 303 297 290 282 277 276 271 264 257 255 248 238 251 264 263 252 222 242 239 247 253 261 254 250 247 251 250 243 230 210 194 196 193 196 195 198 202 205 206 202 203
305 304 301 294 285 279 272 267 265 262 259 253 249 251 248 242 247 254 272 224 243 242 246 247 253 256 254 247 246 232 246 213 202 197 193 194 200 202 205 206 206 209 205
322 322 317 308 297 288 277 273 267 260 259 259 257 251 241 217 217 237 247 258 264 251 232 232 242 240 243 248 247 249 235 220 211 205 197 191 202 206 207 207 208 212 206
332 326 324 315 306 298 286 275 268 263 258 257 259 262 259 251 258 255 247 252 253 246 236 242 233 235 230 225 218 238 247 241 231 212 185 206 206 205 208 204 207 209 203
315 316 315 307 301 297 291 279 271 263 255 255 251 252 258 262 257 241 237 253 233 250 229 228 233 232 234 234 243 249 239 212 207 232 232 228 208 202 200 206 206 191 195
312 310 308 304 301 297 294 285 274 266 261 254 253 251 248 254 259 261 248 239 244 235 212 232 220 227 229 228 227 223 215 215 215 212 222 210 194 194 207 191 185 193 214
312 311 309 304 302 301 299 288 278 269 263 257 256 258 259 255 254 255 255 248 239 245 246 217 203 223 226 219 221 223 221 224 216 209 207 200 191 191 199 205 214 225 240
315 314 311 310 306 305 304 291 274 272 267 262 259 256 258 258 254 246 242 244 243 240 261 185 185 214 210 213 214 214 209 209 207 212 211 207 202 203 210 220 241 248 251
317 314 313 311 307 305 311 301 289 271 262 262 257 256 257 256 255 252 244 241 241 233 233 182 192 195 203 207 212 211 204 205 207 210 213 203 200 203 221 230 244 253 253
319 319 322 315 310 312 310 301 294 289 274 267 264 254 256 255 255 251 243 240 240 240 230 201 185 193 192 196 194 196 192 190 192 192 198 203 210 212 217 231 249 257 254
327 326 326 323 326 319 317 313 304 287 275 269 263 267 256 261 257 262 244 237 236 234 217 199 178 171 178 189 194 185 178 185 186 191 193 192 194 205 226 235 242 247 244
334 332 331 337 334 344 335 324 330 320 295 277 281 285 263 266 268 265 255 243 235 216 210 195 175 183 153 168 188 189 170 181 181 190 190 206 222 234 236 232 236 243 245
341 340 350 344 351 351 344 347 347 356 20 33 24 8 307 270 280 282 239 243 233 205 201 191 186 177 181 185 186 172 158 144 167 203 203 211 231 233 234 242 245 251 256
347 356 3 4 359 354 348 17 46 78 82 77 69 59 65 58 55 75 114 139 118 184 230 227 206 189 182 195 180 168 163 150 136 156 186 211 231 244 245 248 250 248 249
5 10 10 18 17 0 4 55 91 88 79 77 76 69 65 63 63 86 99 93 85 75 72 111 156 134 125 166 174 177 168 147 124 153 167 199 204 214 232 245 252 258 266
14 19 21 26 23 18 26 73 95 88 76 64 60 63 65 66 72 101 105 100 92 81 84 92 93 88 97 151 164 160 150 145 139 162 187 180 174 207 238 243 254 248 221
20 25 34 38 32 32 39 76 92 86 79 72 67 59 65 78 88 90 89 94 88 85 91 93 94 97 103 115 134 155 157 149 123 130 194 169 174 189 191 212 210 266 286